Total_Precipitation_Accumulation
0.02 0.06 0.24 0.34 0.32 0.32 0.32 0.34 0.36 0.37 0.42 0.48 0.46 0.47 0.46 0.42 0.40 0.40 0.38 0.35 0.35 0.39 0.46 0.55 0.58 0.56 0.52 0.42 0.35 0.34 0.34 0.32 0.31 0.31 0.35 0.37 0.36 0.30 0.25 0.24 0.25 0.26 0.39
0.04 0.06 0.20 0.26 0.28 0.31 0.34 0.36 0.33 0.31 0.37 0.43 0.43 0.44 0.46 0.44 0.41 0.45 0.44 0.43 0.42 0.45 0.48 0.54 0.54 0.53 0.47 0.41 0.37 0.33 0.31 0.28 0.24 0.22 0.21 0.24 0.32 0.32 0.30 0.29 0.26 0.31 0.35
0.03 0.05 0.15 0.21 0.25 0.32 0.35 0.33 0.29 0.27 0.32 0.37 0.40 0.43 0.49 0.49 0.46 0.46 0.45 0.44 0.46 0.52 0.54 0.54 0.53 0.52 0.46 0.42 0.41 0.36 0.34 0.26 0.20 0.18 0.15 0.17 0.30 0.39 0.36 0.32 0.29 0.36 0.36
0.01 0.03 0.09 0.19 0.26 0.31 0.33 0.32 0.30 0.29 0.30 0.35 0.39 0.43 0.46 0.47 0.47 0.46 0.44 0.44 0.49 0.57 0.62 0.62 0.60 0.57 0.51 0.45 0.43 0.37 0.39 0.30 0.19 0.16 0.10 0.14 0.30 0.47 0.43 0.38 0.34 0.37 0.38
0.01 0.03 0.10 0.20 0.27 0.32 0.35 0.34 0.32 0.32 0.33 0.35 0.39 0.44 0.51 0.49 0.47 0.44 0.41 0.41 0.47 0.58 0.64 0.64 0.59 0.55 0.54 0.51 0.45 0.41 0.43 0.36 0.21 0.12 0.08 0.13 0.26 0.49 0.43 0.42 0.40 0.37 0.36
0.02 0.03 0.11 0.21 0.29 0.33 0.36 0.37 0.35 0.35 0.38 0.39 0.41 0.46 0.53 0.54 0.52 0.47 0.42 0.39 0.41 0.48 0.56 0.57 0.54 0.54 0.55 0.49 0.42 0.45 0.51 0.44 0.20 0.08 0.11 0.15 0.21 0.49 0.53 0.49 0.43 0.38 0.38
0.02 0.04 0.13 0.24 0.32 0.37 0.38 0.38 0.40 0.40 0.43 0.45 0.47 0.52 0.56 0.56 0.55 0.52 0.49 0.43 0.40 0.40 0.45 0.49 0.50 0.51 0.52 0.48 0.44 0.51 0.58 0.43 0.16 0.11 0.12 0.15 0.23 0.59 0.79 0.67 0.49 0.42 0.40
0.02 0.06 0.15 0.29 0.36 0.41 0.43 0.43 0.45 0.47 0.49 0.51 0.53 0.57 0.59 0.56 0.56 0.54 0.52 0.46 0.41 0.38 0.38 0.40 0.43 0.46 0.47 0.46 0.46 0.49 0.52 0.32 0.13 0.11 0.12 0.13 0.28 0.68 0.87 0.82 0.65 0.51 0.44
0.04 0.08 0.17 0.29 0.36 0.44 0.47 0.48 0.49 0.52 0.54 0.56 0.58 0.59 0.60 0.58 0.58 0.59 0.55 0.50 0.47 0.44 0.40 0.36 0.36 0.37 0.37 0.39 0.41 0.41 0.37 0.24 0.14 0.16 0.14 0.17 0.30 0.71 0.89 0.90 0.80 0.63 0.50
0.08 0.12 0.19 0.29 0.36 0.42 0.48 0.53 0.53 0.55 0.58 0.62 0.64 0.62 0.58 0.60 0.61 0.60 0.54 0.48 0.49 0.49 0.44 0.40 0.37 0.34 0.32 0.31 0.30 0.28 0.22 0.18 0.12 0.17 0.25 0.24 0.30 0.65 0.89 0.90 0.83 0.75 0.61
0.14 0.18 0.26 0.34 0.40 0.46 0.51 0.56 0.62 0.66 0.72 0.74 0.72 0.68 0.68 0.66 0.62 0.54 0.47 0.46 0.50 0.51 0.46 0.43 0.42 0.38 0.34 0.29 0.24 0.20 0.15 0.11 0.12 0.21 0.26 0.28 0.43 0.79 0.99 0.95 0.91 0.83 0.73
0.16 0.21 0.28 0.39 0.45 0.53 0.57 0.65 0.76 0.77 0.79 0.78 0.69 0.66 0.67 0.62 0.59 0.54 0.50 0.49 0.53 0.53 0.50 0.48 0.47 0.45 0.40 0.30 0.28 0.26 0.16 0.11 0.11 0.12 0.16 0.22 0.46 0.87 1.09 1.07 1.08 0.98 0.85
0.13 0.20 0.28 0.40 0.51 0.56 0.59 0.67 0.77 0.80 0.79 0.80 0.74 0.69 0.68 0.69 0.66 0.63 0.59 0.60 0.59 0.56 0.55 0.55 0.58 0.53 0.47 0.42 0.40 0.34 0.24 0.19 0.15 0.10 0.09 0.15 0.30 0.61 0.94 1.09 1.13 1.12 1.06
0.17 0.23 0.32 0.44 0.53 0.56 0.57 0.64 0.70 0.72 0.71 0.72 0.71 0.73 0.75 0.74 0.70 0.68 0.64 0.66 0.67 0.65 0.61 0.60 0.57 0.54 0.50 0.45 0.43 0.40 0.37 0.35 0.25 0.18 0.13 0.14 0.17 0.27 0.50 0.79 1.02 1.15 1.21
0.20 0.27 0.38 0.46 0.54 0.60 0.63 0.68 0.71 0.68 0.64 0.66 0.69 0.73 0.69 0.63 0.58 0.54 0.53 0.52 0.49 0.48 0.48 0.50 0.52 0.51 0.49 0.45 0.40 0.36 0.36 0.38 0.34 0.29 0.23 0.22 0.19 0.20 0.29 0.46 0.73 1.00 1.20
0.23 0.30 0.42 0.51 0.57 0.65 0.65 0.67 0.70 0.68 0.65 0.68 0.67 0.64 0.62 0.58 0.53 0.47 0.45 0.44 0.41 0.37 0.35 0.36 0.37 0.38 0.39 0.37 0.33 0.29 0.30 0.33 0.33 0.32 0.31 0.31 0.26 0.23 0.26 0.36 0.52 0.78 1.10
0.26 0.34 0.44 0.55 0.67 0.72 0.70 0.71 0.74 0.73 0.70 0.69 0.68 0.64 0.62 0.58 0.54 0.51 0.47 0.43 0.41 0.41 0.40 0.39 0.39 0.38 0.35 0.32 0.29 0.26 0.25 0.25 0.29 0.31 0.32 0.34 0.34 0.31 0.29 0.35 0.45 0.64 0.96
0.29 0.39 0.47 0.60 0.75 0.81 0.79 0.79 0.78 0.77 0.79 0.75 0.71 0.69 0.64 0.60 0.56 0.53 0.52 0.48 0.47 0.49 0.49 0.48 0.44 0.42 0.38 0.34 0.32 0.29 0.27 0.24 0.22 0.25 0.30 0.31 0.32 0.32 0.31 0.33 0.44 0.61 0.83
0.29 0.39 0.50 0.60 0.75 0.87 0.91 0.88 0.86 0.81 0.83 0.83 0.78 0.72 0.69 0.63 0.57 0.54 0.52 0.53 0.56 0.60 0.58 0.54 0.50 0.45 0.42 0.38 0.36 0.33 0.30 0.27 0.24 0.25 0.27 0.31 0.32 0.31 0.31 0.32 0.38 0.49 0.66
0.29 0.38 0.51 0.63 0.80 0.92 1.08 1.11 1.08 1.00 0.90 0.87 0.84 0.74 0.67 0.66 0.63 0.61 0.58 0.58 0.62 0.65 0.63 0.60 0.53 0.48 0.45 0.44 0.44 0.41 0.34 0.28 0.26 0.26 0.25 0.28 0.31 0.32 0.32 0.36 0.40 0.38 0.44
0.37 0.42 0.51 0.65 0.81 0.98 1.11 1.19 1.16 1.10 0.95 0.89 0.87 0.82 0.72 0.69 0.71 0.70 0.64 0.65 0.64 0.65 0.62 0.59 0.58 0.56 0.51 0.49 0.54 0.54 0.47 0.37 0.31 0.27 0.27 0.29 0.31 0.35 0.42 0.47 0.54 0.50 0.43
0.43 0.46 0.50 0.61 0.73 0.91 1.04 1.09 1.15 1.10 1.01 0.91 0.89 0.87 0.79 0.70 0.73 0.79 0.73 0.68 0.67 0.65 0.66 0.67 0.65 0.64 0.63 0.57 0.57 0.63 0.58 0.51 0.40 0.30 0.29 0.31 0.34 0.42 0.53 0.58 0.63 0.64 0.57
0.44 0.49 0.53 0.58 0.65 0.77 1.02 1.24 1.36 1.40 1.29 1.12 1.00 0.92 0.82 0.74 0.68 0.76 0.80 0.74 0.70 0.68 0.65 0.64 0.63 0.62 0.64 0.58 0.54 0.72 0.78 0.57 0.37 0.28 0.25 0.26 0.28 0.30 0.34 0.41 0.48 0.53 0.59
0.43 0.53 0.62 0.61 0.67 0.77 0.94 1.25 1.41 1.46 1.34 1.08 0.93 0.90 0.87 0.81 0.73 0.70 0.78 0.80 0.78 0.75 0.71 0.66 0.64 0.63 0.68 0.69 0.58 0.54 0.58 0.57 0.56 0.39 0.25 0.23 0.22 0.23 0.22 0.24 0.29 0.35 0.46
0.44 0.55 0.67 0.72 0.77 0.86 0.93 1.12 1.35 1.46 1.39 1.25 1.11 0.99 0.93 0.91 0.86 0.77 0.74 0.79 0.80 0.80 0.79 0.73 0.69 0.70 0.72 0.74 0.70 0.59 0.52 0.45 0.46 0.54 0.37 0.25 0.25 0.23 0.22 0.22 0.23 0.24 0.29
0.42 0.50 0.64 0.77 0.81 0.93 0.98 1.09 1.22 1.39 1.49 1.46 1.35 1.22 1.07 1.01 0.96 0.93 0.80 0.78 0.79 0.80 0.81 0.79 0.73 0.71 0.73 0.73 0.70 0.66 0.66 0.62 0.49 0.52 0.46 0.30 0.26 0.24 0.24 0.24 0.24 0.24 0.25